EW3668 Weather Reports


Display with metric or nautical units.
time (UTC)temp
F
wind
direction
speed
MPH
gust
MPH
rain 1hr
in
rain 24hr
in
rain mn
in
humidity
%
barometer
mb
20260510173114 84 345 0.0 3.0 0.00 0.00 0.00 54 1015.1
20260510173003 85 128 0.0 3.0 0.00 0.00 0.00 54 1015.1
20260510171601 84 260 0.0 4.0 0.00 0.00 0.00 51 1015.4
20260510170059 84 206 0.0 2.0 0.00 0.00 0.00 54 1015.3
20260510164609 82 172 0.0 2.0 0.00 0.00 0.00 55 1015.4
20260510163022 81 121 1.0 3.0 0.00 0.00 0.00 55 1015.6
20260510161521 81 113 1.0 4.0 0.00 0.00 0.00 55 1015.7
20260510160015 81 12 0.0 2.0 0.00 0.00 0.00 57 1015.8
20260510154513 80 231 0.0 2.0 0.00 0.00 0.00 61 1016.0
20260510153015 79 94 0.0 3.0 0.00 0.00 0.00 65 1016.2
20260510151507 79 344 0.0 2.0 0.00 0.00 0.00 70 1016.0
20260510150036 78 57 0.0 2.0 0.00 0.00 0.00 71 1015.9
20260510144545 77 38 0.0 1.0 0.00 0.00 0.00 74 1016.0
20260510143026 76 155 0.0 1.0 0.00 0.00 0.00 76 1015.9
20260510141524 75 5 0.0 1.0 0.00 0.00 0.00 77 1015.9
20260510140020 74 122 0.0 2.0 0.00 0.00 0.00 86 1016.0
20260510134516 73 113 0.0 0.0 0.00 0.00 0.00 86 1016.1
20260510133013 72 332 0.0 0.0 0.00 0.00 0.00 89 1015.8
20260510131507 70 221 0.0 0.0 0.00 0.00 0.00 94 1015.9
20260510130002 69 286 0.0 1.0 0.00 0.00 0.00 98 1015.6
20260510124613 67 309 0.0 2.0 0.00 0.00 0.00 98 1015.4
20260510123027 65 173 0.0 1.0 0.00 0.00 0.00 96 1015.4
20260510121521 63 229 0.0 0.0 0.00 0.00 0.00 91 1015.3
20260510120048 62 226 0.0 0.0 0.00 0.00 0.00 87 1015.2
20260510114559 62 310 0.0 0.0 0.00 0.00 0.00 85 1015.0
20260510113043 61 316 0.0 0.0 0.00 0.00 0.00 83 1014.8
20260510111540 61 315 0.0 0.0 0.00 0.00 0.00 83 1014.5
20260510110039 60 315 0.0 0.0 0.00 0.00 0.00 84 1014.3
20260510104535 60 315 0.0 0.0 0.00 0.00 0.00 84 1014.1
20260510103039 61 264 0.0 1.0 0.00 0.00 0.00 83 1014.1
20260510101528 60 319 0.0 0.0 0.00 0.00 0.00 83 1013.8
20260510100032 60 207 0.0 0.0 0.00 0.00 0.00 83 1013.5
20260510094524 60 207 0.0 0.0 0.00 0.00 0.00 84 1013.3
20260510093024 60 207 0.0 0.0 0.00 0.00 0.00 84 1012.9
20260510091518 61 207 0.0 0.0 0.00 0.00 0.00 84 1013.0
20260510090017 61 207 0.0 0.0 0.00 0.00 0.00 85 1012.8
20260510084516 61 207 0.0 0.0 0.00 0.00 0.00 85 1012.9
20260510083017 61 205 0.0 0.0 0.00 0.00 0.00 85 1012.7
20260510081518 61 205 0.0 0.0 0.00 0.00 0.00 87 1012.5
20260510080013 61 193 0.0 0.0 0.00 0.00 0.00 86 1012.5
20260510074512 61 189 0.0 0.0 0.00 0.00 0.00 88 1012.5
20260510073012 61 191 0.0 0.0 0.00 0.00 0.00 84 1012.4
20260510071553 61 189 0.0 0.0 0.00 0.00 0.00 85 1012.3
20260510070042 61 189 0.0 0.0 0.00 0.00 0.00 89 1012.3
20260510064510 62 189 0.0 0.0 0.00 0.00 0.00 93 1012.5
20260510063008 62 189 0.0 0.0 0.00 0.00 0.00 90 1012.5
20260510061506 62 176 0.0 0.0 0.00 0.00 0.00 87 1012.3
20260510060006 61 176 0.0 0.0 0.00 0.00 0.00 85 1012.5
20260510054503 61 176 0.0 0.0 0.00 0.00 0.00 85 1012.6
20260510053002 62 176 0.0 0.0 0.00 0.00 0.00 88 1012.6
20260510051539 62 176 0.0 0.0 0.00 0.00 0.00 88 1012.8
20260510050030 62 253 0.0 1.0 0.00 0.00 0.00 85 1012.9
20260510044558 62 253 0.0 0.0 0.00 0.00 0.00 87 1013.0
20260510043103 62 253 0.0 0.0 0.00 0.00 0.00 88 1013.0
20260510041608 62 275 0.0 1.0 0.00 0.00 0.00 86 1013.0
20260510040050 62 256 0.0 0.0 0.00 0.00 0.00 84 1013.0
20260510034550 62 261 0.0 1.0 0.00 0.00 0.00 85 1012.8
20260510033049 62 261 0.0 0.0 0.00 0.00 0.00 85 1012.7
20260510031548 62 262 0.0 0.0 0.00 0.00 0.00 85 1012.6
20260510030050 62 262 0.0 0.0 0.00 0.00 0.00 84 1012.6
20260510024554 62 262 0.0 0.0 0.00 0.00 0.00 88 1012.6
20260510023047 62 262 0.0 0.0 0.00 0.00 0.00 86 1012.4
20260510021543 62 262 0.0 0.0 0.00 0.00 0.00 89 1012.4
20260510020049 63 262 0.0 0.0 0.00 0.00 0.00 91 1012.2
20260510014542 63 262 0.0 0.0 0.00 0.00 0.00 91 1012.3
20260510013047 63 262 0.0 0.0 0.00 0.00 0.00 95 1011.9
20260510011540 64 262 0.0 0.0 0.00 0.00 0.00 97 1011.7
20260510010056 65 262 0.0 0.0 0.00 0.00 0.00 97 1011.4
20260510004537 66 262 0.0 0.0 0.00 0.00 0.00 98 1011.3
20260510003036 67 262 0.0 0.0 0.00 0.00 0.00 97 1011.2
20260510001534 69 262 0.0 0.0 0.00 0.00 0.00 95 1011.3
20260510000038 69 262 0.0 0.0 0.00 0.00 0.00 93 1011.2
20260509234548 70 262 0.0 0.0 0.00 0.00 0.00 91 1011.1
20260509233035 71 259 0.0 1.0 0.00 0.00 0.00 90 1010.8
20260509231533 72 217 0.0 2.0 0.00 0.00 0.00 88 1010.8
20260509230030 73 314 0.0 2.0 0.00 0.00 0.00 87 1010.5
20260509224529 73 285 0.0 2.0 0.00 0.00 0.00 86 1010.3
20260509223028 75 209 0.0 2.0 0.00 0.00 0.00 83 1010.5
20260509221609 75 176 0.0 2.0 0.00 0.00 0.00 84 1010.5
20260509220106 74 191 0.0 2.0 0.00 0.00 0.00 85 1010.5
20260509214553 74 168 0.0 1.0 0.00 0.00 0.00 84 1010.6
20260509213052 74 198 0.0 1.0 0.00 0.00 0.00 84 1010.5
20260509211550 74 201 0.0 2.0 0.00 0.00 0.00 84 1010.4
20260509210057 73 308 0.0 2.0 0.00 0.00 0.00 86 1010.3
20260509204519 72 293 0.0 3.0 0.00 0.00 0.00 87 1010.3
20260509203018 71 234 0.0 2.0 0.00 0.00 0.00 88 1010.4
20260509201547 71 316 0.0 2.0 0.00 0.00 0.00 88 1010.6
20260509200045 71 198 0.0 2.0 0.00 0.00 0.00 88 1010.6
20260509194516 70 300 0.0 2.0 0.00 0.00 0.00 88 1010.9
20260509193012 70 299 0.0 3.0 0.00 0.00 0.00 88 1011.0
20260509191606 71 259 0.0 2.0 0.00 0.00 0.00 85 1011.2
20260509190047 72 332 1.0 4.0 0.00 0.00 0.00 84 1011.2
20260509184525 74 251 0.0 4.0 0.00 0.00 0.00 79 1011.1
20260509183008 75 240 1.0 4.0 0.00 0.00 0.00 79 1011.0
20260509181604 74 186 0.0 3.0 0.00 0.00 0.00 78 1011.3
20260509180031 73 316 1.0 4.0 0.00 0.00 0.00 76 1011.6
20260509174530 73 290 0.0 3.0 0.00 0.00 0.00 75 1011.9